Center Hill Observed Data For Previous 48 Hours

Caption
Day and Hour Reservoir Elevation (behind dam)* Tailwater Elevation (below dam)* Average Hourly Discharge*
1/15/2019 1 AM CST 636.68 487.98 12,800
1/15/2019 2 AM CST 636.64 487.94 12,920
1/15/2019 3 AM CST 636.59 487.89 12,800
1/15/2019 4 AM CST 636.55 487.95 12,775
1/15/2019 5 AM CST 636.51 487.91 12,895
1/15/2019 6 AM CST 636.47 487.97 12,775
1/15/2019 7 AM CST 636.43 487.93 12,635
1/15/2019 8 AM CST 636.39 487.99 12,635
1/15/2019 9 AM CST 636.37 487.97 12,775
1/15/2019 10 AM CST 636.29 487.99 12,775
1/15/2019 11 AM CST 636.29 487.99 12,775
1/15/2019 12 PM CST 636.25 487.95 12,895
1/15/2019 1 PM CST 636.21 488.01 12,825
1/15/2019 2 PM CST 636.17 488.07 12,955
1/15/2019 3 PM CST 636.13 487.93 12,825
1/15/2019 4 PM CST 636.06 487.96 12,825
1/15/2019 5 PM CST 636.02 488.02 12,825
1/15/2019 6 PM CST 635.98 487.98 12,825
1/15/2019 7 PM CST 635.94 487.94 12,825
1/15/2019 8 PM CST 635.90 488.00 12,825
1/15/2019 9 PM CST 635.85 487.95 12,825
1/15/2019 10 PM CST 635.81 487.91 12,825
1/15/2019 11 PM CST 635.77 487.97 12,825
1/16/2019 12 AM CST 635.73 487.93 12,825
1/16/2019 1 AM CST 635.69 487.99 12,875
1/16/2019 2 AM CST 635.65 487.95 12,875
1/16/2019 3 AM CST 635.61 487.91 12,875
1/16/2019 4 AM CST 635.57 487.97 12,690
1/16/2019 5 AM CST 635.52 487.92 12,850
1/16/2019 6 AM CST 635.48 487.98 12,850
1/16/2019 7 AM CST 635.44 487.94 12,980
1/16/2019 8 AM CST 635.39 487.99 12,850
1/16/2019 9 AM CST 635.35 487.95 12,850
1/16/2019 10 AM CST 635.31 487.91 12,690
1/16/2019 11 AM CST 635.26 487.96 12,690
1/16/2019 12 PM CST 635.21 488.01 12,900
1/16/2019 1 PM CST 635.16 487.96 12,900
1/16/2019 2 PM CST 635.12 487.92 12,900
1/16/2019 3 PM CST 635.06 487.96 12,740
1/16/2019 4 PM CST 635.01 487.91 12,900
1/16/2019 5 PM CST 634.96 487.96 12,900
1/16/2019 6 PM CST 634.91 487.91 12,900
1/16/2019 7 PM CST 634.87 487.87 12,900
1/16/2019 8 PM CST 634.83 488.03 12,900
1/16/2019 9 PM CST 634.78 487.88 12,900
1/16/2019 10 PM CST 634.74 487.94 12,900
1/16/2019 11 PM CST 634.72 487.92 12,740
1/17/2019 12 AM CST 634.69 487.89 12,900
1/17/2019 1 AM CST 634.62 487.92 12,770
1/17/2019 2 AM CST 634.58 487.88 12,960
1/17/2019 3 AM CST 634.54 487.94 12,745
1/17/2019 4 AM CST 634.50 487.90 12,935
1/17/2019 5 AM CST 634.45 487.95 12,935
1/17/2019 6 AM CST 634.41 487.91 12,745
1/17/2019 7 AM CST 634.37 487.97 12,045
1/17/2019 8 AM CST 634.33 487.93 12,045
1/17/2019 9 AM CST 634.29 487.99 12,045
1/17/2019 10 AM CST 634.26 487.96 12,045
1/17/2019 11 AM CST 634.23 487.93 12,045
1/17/2019 12 PM CST 634.18 487.98 12,140
1/17/2019 1 PM CST 634.14 487.84 12,130
1/17/2019 2 PM CST 634.11 487.91 12,055
1/17/2019 3 PM CST 634.07 487.97 12,055
1/17/2019 4 PM CST 634.02 487.92 12,080
1/17/2019 5 PM CST 633.99 487.99 12,080
1/17/2019 6 PM CST 633.95 487.95 12,055

Elevations are in feet above sea level. Discharges are in cubic feet per second and are reported at the end of the hour.